Погода Белый

Погода Белый : погода сейчас, прогноз погоды и архив. Всё, что Вы хотите узнать о погоде Белый!

Поиск расширенной информации на нашем сайте:

Другие новости

Новости СМИ2

Главная страница сайта

Новости сайта

03.07.2017

Напоминаем, что на нашем специализированном сайте Метеоцентр.Азия вы можете получить высокодетализированные автоматические прогнозы погоды по пунктам России, СНГ и мира в авиационном формате (включающие направление и скорость ветра, видимость, явления погоды, количество и форму облачности, нижнюю и верхнюю границу облачности).


Погода Белый - сегодня

Время (UTC), дата Ветер
(°,м/с) 
Видим.   Явления Облачность Т
(°С)
Тd
(°С)
f(%) Тe
(°С)
Pmin
(гПа)
dP
(гПа)
Po
(мм)
O2
(г/м3)
Тmin Tmax R s Состояние
почвы
03 15.08.17 350 (С) 4000 м  дымка  ясно 
+10.3 +9.5 95 +11  1026  1.1  749  289  +9.9         
06 15.08.17 030 (СВ) 20000 м    ясно 
+16.4 +13.1 81 +24  1026.7  1.3  750  283  +9.9        мокрая 
09 15.08.17 040 (СВ) 20000 м    8/8 1000 м 
[Cu med, cong]
+20.8 +12.7 60 +26  1026.7  0.4  751  279           
12 15.08.17 050 (СВ) 20000 м    6/6 1000 м 
[Cu med, cong]
+21.8 +10.4 48 +23  1026.3  -0.4  750  278           
15 15.08.17 070 (В) 20000 м    ясно 
+20.6 +10.4 52 +22  1026.3  -0.1  750  279           
21 15.08.17 050 (СВ) 10 км    ясно 
+11.5 +10.2 92 +14  1028.1  0.4  751  288           
00 16.08.17 090 (В) 10 км    ясно 
+9 +8.1 94 +10  1028.6  0.2  751  292           
03 16.08.17 110 (В) 20000 м    6/6 600 м 
[Sc]
+8.6 +7.8 95 +10  1028.6  751  292  +7.6         
06 16.08.17 130 (ЮВ) 20000 м    9/0 средняя 
[Ac trans]
+14.9 +11.6 81 +19  1028.4  0.4  751  285  +7.6        мокрая 
09 16.08.17 120 (ЮВ) 20000 м    8/4 1000 м верхняя 
[Cu hum|Ci fib]
+21.4 +11.1 52 +24  1027.2  -0.6  751  279           
12 16.08.17 140 (ЮВ) 20000 м    9/4 1000 м средняя, верхняя 
[Cu hum|Ac trans|Ci]
+21.6 +10.8 50 +24  1026.3  -0.9  750  278           
15 16.08.17 120 (ЮВ) 20000 м    8/0 средняя 
[Ac trans]
+21.2 +11.6 54 +25  1025.5  -0.8  750  278           
18 16.08.17 120 (ЮВ) 10 км    ясно 
+16.7 +12.8 78 +23  1025.5  -0.3  749  282    +22.2       
21 16.08.17 130 (ЮВ) 10 км    ясно 
+13 +11.8 92 +17  1025.9  749  286           
00 17.08.17 120 (ЮВ) 10 км    ясно 
+12.1 +11.1 94 +15  1025.9  749  287           
03 17.08.17 120 (ЮВ) 20000 м    ясно 
+11.5 +10.6 94 +14  1025.9  -0.1  749  288  +11.2         
06 17.08.17 130 (ЮВ) 20000 м    ясно 
+19 +13.9 72 +27  1025.3  0.1  749  279  +11.2        мокрая 
09 17.08.17 150 (ЮВ) 20000 м    8/0 верхняя 
[Ci]
+23.2 +14.7 59 +31  1024.3  -0.6  749  275           
12 17.08.17 170 (Ю) 20000 м    9/4 1000 м средняя, верхняя 
[Cu hum|Ac trans|Ci]
+24.5 +15 55 +33  1023.6  -0.5  749  274           
15 17.08.17 140 (ЮВ) 20000 м    9/0 верхняя 
[Ci]
+23.3 +14.8 59 +32  1022.7  -1  748  275           
18 17.08.17 140 (ЮВ) 10 км    6/0 средняя, верхняя 
[Ac trans|Ci]
+18.2 +14.9 81 +28  1023  -0.1  748  279    +24.7       
21 17.08.17 140 (ЮВ) 10 км    ясно 
+15.7 +14 90 +23  1023.4  0.1  748  282           
00 18.08.17 130 (ЮВ) 10 км    ясно 
+15.1 +13.4 90 +22  1022.8  -0.6  747  283           
03 18.08.17 140 (ЮВ) 4000 м  дымка  ясно 
+14.1 +13.2 94 +21  1022.5  -0.4  747  284  +14         
06 18.08.17 190 (Ю) 20000 м    ясно 
+21.8 +15.3 67 +31  1021.9  0.1  747  276  +14        влажная 
Время (UTC), дата Ветер
(°,м/с) 
Видим.   Явления Облачность Т
(°С)
Тd
(°С)
f(%) Тe
(°С)
Pmin
(гПа)
dP
(гПа)
Po
(мм)
O2
(г/м3)
Тmin Tmax R s Состояние
почвы

Для получения пояснительной информации подведите курсор к названию столбца.

ПОГОДА Белый - архив

Всё, что Вы хотите узнать о погоде Белый - удобно и подробно!

Выберите нужную дату (начиная с 1 января 2015* года) и нажмите кнопку "Найти".
Будут отображены архивные сводки погоды по пункту Белый, начиная с указанной даты.


Отображать данные в формате CSV (для использования в таблицах Excel)


Внимание! Наш архив погоды предназначен исключительно для личного некоммерческого использования в познавательных целях. Если Вам необходимы официальные справки о состоянии погоды (для производственных, юридических, коммерческих и т.п. целей), обращайтесь в органы Росгидромета.

*Примечание: данная дата относится к архиву по метеостанциям СССР (Россия, СНГ, Балтия).
Архив по метеостанциям Зарубежной Европы и Азии (кроме Китая) хранится 10 дней, по другим регионам земного шара (Китай, Африка, Америка, Австралия, Океания) - 1 день.

Белый - район местоположения метеостанции


Название, широта, долгота, высота метеостанции:
Белый 55.9°ш. 32.9°д. 222 м над ур. моря [Российская Федерация]

Дополнительная информация

В oтличие oт бoльшинства пoгoдных сайтoв мы публикуем пoдрoбную метеoинфoрмацию в детальнoм прoфессиoнальнoм фoрмате.

Характеристики температуры и влажнoсти вoздуха измеряются на высoте 2 м в тени вдали oт зданий и деревьев.
Скoрoсть ветра измеряется на высoте 10 м (на урoвне рoста челoвека скoрoсть ветра ниже в 1.5-2 раза). Если метеoстанция нахoдится в гoрoде или в лесу, тo скoрoсть ветра занижена на 2-4 м/с пo сравнению с oткрытым местoм. Скoрoсть ветра над акватoриями крупных рек и oзёр, а также на вершинах хoлмoв на 2-5 м/с выше, чем в oбычных услoвиях.
Атмoсфернoе давление в разных тoчках местнoсти мoжет значительнo oтличаться oт давления на метеoстанции, в зависимoсти oт услoвий рельефа (при пoдъёме на 10 м давление пoнижается примернo на 1 мм рт.ст.).